Regional Weather Roundup
Issued by NWS State College, PA

Home | Current Version | Previous Version | Graphics & Text | Print | Product List | Glossary Off
Versions: 1 2 3 4 5 6 7 8 9 10 11 12 13 14 15 16 17 18 19 20 21 22 23 24 25 26 27 28 29 30 31 32 33 34 35 36 37 38 39 40 41 42 43 44 45 46 47 48 49 50

000
ASUS41 KCTP 190803
RWRCTP

REGIONAL WEATHER ROUNDUP
NATIONAL WEATHER SERVICE STATE COLLEGE PA
400 AM EDT THU OCT 19 2017

Note: "fair" indicates few or no clouds below 12,000 feet with no
significant weather and/or obstructions to visibility.

* = STATION THAT DOES NOT REPORT PRECIPITATION /E.G. RAIN...SNOW...ETC/
    THUNDER OR FOG.

PAZ002>004-007>009-013>016-020>023-029>032-190900-
WESTERN PENNSYLVANIA

CITY           SKY/WX    TMP DP  RH WIND       PRES   REMARKS
ERIE           CLEAR     57  40  52 S13       30.14F
MEADVILLE      CLEAR     50  40  68 S6        30.17F
FRANKLIN*      CLEAR     47  38  71 S6        30.20F
NEW CASTLE     FAIR      40  40 100 CALM      30.20F
BEAVER COUNTY  NOT AVBL
BUTLER*        CLEAR    N/A N/A N/A CALM      30.21S
PITTSBURGH INT CLEAR     46  41  82 CALM      30.20S
PITTSBURGH     CLEAR     49  37  63 S8        30.21S
INDIANA*       CLEAR     43  41  93 CALM      30.24S
LATROBE        CLEAR     41  39  93 SE3       30.23S
WASHINGTON CO* CLEAR     43  38  82 SW5       30.24S
$$

PAZ004>006-010>012-017>019-024>028-033>037-041-042-045-046-049>053-190900-
CENTRAL PENNSYLVANIA

CITY           SKY/WX    TMP DP  RH WIND       PRES   REMARKS
BRADFORD       CLEAR     49  39  68 S5        30.19F
DUBOIS         CLEAR     49  37  63 CALM      30.20F
CLEARFIELD     CLEAR     41  39  93 CALM      30.22F
JOHNSTOWN      CLEAR     51  37  58 SW6       30.23S
ALTOONA        CLEAR     46  32  58 CALM      30.23F
STATE COLLEGE  CLEAR     45  41  86 CALM      30.22F
WILLIAMSPORT   CLOUDY    44  42  93 CALM      30.23F
SELINSGROVE    CLEAR     41  41 100 CALM      30.25S
FT INDIANTOWN  PTCLDY    42  42 100 CALM      30.26S
CAPITAL CITY   CLEAR     45  42  89 SW3       30.26S
HARRISBURG     PTCLDY    47  46  97 E3        30.25F
YORK           CLEAR     39  39 100 CALM      30.25F
$$

PAZ038>040-043-044-047-048-054-055-060>062-067>071-190900-
EASTERN PENNSYLVANIA

CITY           SKY/WX    TMP DP  RH WIND       PRES   REMARKS
SCRANTON       CLOUDY    45  43  93 CALM      30.24S
MOUNT POCONO   CLEAR     48  42  80 W6        30.25F
ALLENTOWN      CLEAR     45  42  89 CALM      30.26F
QUAKERTOWN*    SUNNY     41  39  93 CALM      30.27S
READING        PTCLDY    45  45 100 NW3       30.25F
LANCASTER      CLOUDY    46  46 100 CALM      30.26F FOG
COATESVILLE    CLOUDY    52  50  93 CALM      30.27F
POTTSTOWN      CLEAR     44  44 100 CALM      30.28F
BLUE BELL      CLEAR     39  39 100 CALM      30.28F
DOYLESTOWN     CLEAR     46  44  93 CALM      30.26F
WILLOW GROVE   NOT AVBL
NORTH PHILA    CLEAR     49  45  86 CALM      30.28F
PHILADELPHIA   PTCLDY    53  47  79 SW5       30.28F
$$




USA.gov is the U.S. government's official web portal to all federal, state and local government web resources and services.